Location: Robledo de Chavela
(40.5014°N, 4.2377°W)
Time: 11:53:50
(UTC+00:00)

Cosmos 1727 Rocket - Pass Details

Date: 18 April 2024
Orbit: 960 x 997 km, 82.9° (Epoch: 27 May)

Event Time Altitude Azimuth Distance (km) Brightness Sun altitude
Exits shadow 21:49:12 74° 97° (E) 1,026 3.9 -28.1°
Maximum altitude 21:49:14 74° 94° (E) 1,026 3.9 -28.1°
Drops below altitude 10° 21:55:28 10° 11° (N) 2,735 6.8 -28.9°
Sets 21:57:59 0° 10° (N) 3,681 7.6 -29.2°
